Location: Asheville, NC
(35.6000°N, 82.5500°W)
Time: 14:24:48
(UTC-04:00)

LilacSat-2 - Pass Details

Date: 04 January 2018
Orbit: 515 x 535 km, 97.5° (Epoch: 16 July)

Event Time Altitude Azimuth Distance (km) Brightness Sun altitude
Rises 18:23:53 0° 190° (S) 2,660 ? -10.7°
Reaches altitude 10° 18:26:10 10° 201° (SSW) 1,777 ? -11.2°
Maximum altitude 18:29:33 29° 263° (W) 995 ? -11.8°
Drops below altitude 10° 18:32:57 10° 325° (NW) 1,793 ? -12.5°
Sets 18:35:17 0° 336° (NNW) 2,689 ? -12.9°
